This is the latest recevied weather packets stored in our database for station/object KD7AWQ. If no packets are shown the sender has not sent any weather packets the latest 10 day(s).
| Time | Temp. | Humidity | Pressure | Rain* | Wind** | Luminosity | Snow |
|---|---|---|---|---|---|---|---|
| 1788453560 | 27.22° C | 51% | 1188.7 hPa | 0 mm | - | 911 W/m² | - |
| 1788453256 | 26.67° C | 53% | 1188.6 hPa | 0 mm | - | 875 W/m² | - |
| 1788452952 | 26.11° C | 54% | 1189 hPa | 0 mm | - | 866 W/m² | - |
| 1788452648 | 25.56° C | 56% | 1189 hPa | 0 mm | - | 905 W/m² | - |
| 1788452343 | 24.44° C | 58% | 1188.8 hPa | 0 mm | - | 889 W/m² | - |
| 1788452038 | 23.89° C | 61% | 1188.9 hPa | 0 mm | - | 334 W/m² | - |
| 1788451734 | 23.89° C | 61% | 1189 hPa | 0 mm | - | 293 W/m² | - |
| 1788451433 | 23.89° C | 61% | 1189 hPa | 0 mm | - | 289 W/m² | - |
| 1788451131 | 23.89° C | 61% | 1188.7 hPa | 0 mm | - | 255 W/m² | - |
| 1788450827 | 23.33° C | 62% | 1189 hPa | 0 mm | - | 210 W/m² | - |
| 1788450522 | 23.33° C | 63% | 1188.7 hPa | 0 mm | - | 160 W/m² | - |
| 1788450233 | 23.33° C | 62% | 1189 hPa | 0 mm | - | 157 W/m² | - |
| 1788449913 | 23.33° C | 64% | 1189 hPa | 0 mm | - | 148 W/m² | - |
| 1788449609 | 23.33° C | 63% | 1189 hPa | 0 mm | - | 150 W/m² | - |
| 1788449306 | 23.89° C | 63% | 1188.9 hPa | 0 mm | - | 190 W/m² | - |
| 1788449001 | 23.33° C | 64% | 1188.7 hPa | 0 mm | - | 207 W/m² | - |
| 1788448696 | 23.33° C | 65% | 1188.8 hPa | 0 mm | - | 208 W/m² | - |
| 1788448392 | 23.33° C | 65% | 1188.9 hPa | 0 mm | - | 146 W/m² | - |
| 1788448091 | 23.33° C | 65% | 1189 hPa | 0 mm | - | 113 W/m² | - |
| 1788447786 | 23.33° C | 65% | 1188.8 hPa | 0 mm | - | 107 W/m² | - |
| 1788447481 | 22.78° C | 65% | 1188.8 hPa | 0 mm | - | 109 W/m² | - |
| 1788447176 | 23.33° C | 65% | 1188.9 hPa | 0 mm | - | 101 W/m² | - |
| 1788446875 | 22.78° C | 65% | 1188.8 hPa | 0 mm | - | 94 W/m² | - |
| 1788446571 | 23.33° C | 64% | 1188.9 hPa | 0 mm | - | 86 W/m² | - |
| 1788446266 | 23.33° C | 63% | 1188.9 hPa | 0 mm | - | 87 W/m² | - |
* Rain latest hour (hover to see other rain measurements)
** Current wind speed in m/s (hover to see current wind gust speed)